Lynden Pindling International Airport
MYNN : now visible

Airfield :











YOU CAN JOIN US ON...

 
LOGIN :

Register | Disclaimer

   EN    FR    IT 

 









Legend :    VFR   Marginal VFR   IFR   Intensive IFR   Very Intensive IFR
Visi :
Ceiling :
>= 8 km
>= 3000ft
5 to 8 km
1000 to 3000 ft
1500m to 5 km
500 to 1000 ft
800 to 1500m
200 to 500 ft
< 800m
< 200 ft
Symbols :   Thunderstorms  Fog  Heavy snow  Heavy precipitations  Wind > 20 kt






- Airport Elevation : 16 ft
- IATA code : NAS


MYNN - Lynden Pindling International

CURRENT METAR :
  • 071600Z 21013KT 9999 FEW018CB 30/21 A3003 RMK CB N

EXPIRED METARs :
  • 071500Z 21014KT 9999 FEW018CB 29/21 A3003 RMK CB NW
  • 071400Z 22013KT 9999 SCT020 28/22 A3003

TAF TAF MYNN
Valid from the 07 at 12:00 until the 08 at 12:00 UTC


0712/0812 22003KT 9999 SCT030
TEMPO
PROB30 SHRA
FM072100 8000 TSRA SCT015CB SCT030 BKN060
MYNA FIR / North America



MET'MAP, your aeronautical weather chart ! - Copyright ORBIFLY December 2007 - Disclaimer

ORBIFLY MET'MAP TEAM :

Programming & Development : Alexandra Zaïnal
Concept & original design : Baudouin d'Aumeries
Assistance for programming : Marc-Olivier Méhu
Technical & hardware support : Manuel Goepfert

Contact : metmap@orbifly.com




SOURCES & CREDITS :

   NOAA       Earth
Advisory